Weather History for Ocean City, MD

Change the Weather History Date:

Saturday, August 3, 2013

  Actual Average (KSBY) Record (KSBY)
Temperature  
Mean Temperature 78 °F 76 °F  
Max Temperature 84 °F 86 °F 97 °F (2006)
Min Temperature 71 °F 67 °F 51 °F (1913)
Degree Days  
Heating Degree Days 0 0  
Month to date heating degree days 0  
Since 1 June heating degree days 20  
Since 1 July heating degree days 1  
Cooling Degree Days 13 11  
Month to date cooling degree days 33  
Year to date cooling degree days 708  
Since 1 June cooling degree days 624  
Growing Degree Days 28 (Base 50)    
Moisture  
Dew Point 70 °F    
Average Humidity 85    
Maximum Humidity 97    
Minimum Humidity 53    
Precipitation  
Precipitation 0.00 in 0.16 in 4.18 in (1948)
Month to date precipitation 0.48  
Year to date precipitation 27.12  
Snow  
Snow 0.00 in 0.00 in 0.00 in (2002)
Month to date snowfall 0.0  
Since 1 July snowfall 0.0  
Snow Depth -    
Sea Level Pressure  
Sea Level Pressure 29.95 in    
Wind  
Wind Speed 4 mph (SW)    
Max Wind Speed 7 mph    
Max Gust Speed -    
Visibility 9 miles    
Events      
T = Trace of Precipitation, MM = Missing Value Source: NWS Daily Summary

Daily Weather History Graph

Daily Weather History Graph

Search for Another Location

Airport:

Trip Planner

Search our weather history database for the weather conditions in past years. The results will help you decide how hot, cold, wet, or windy it might be!

Date:

Astronomy

Aug. 03, 2013 Rise Set
Actual Time 6:04 AM EDT 8:08 PM EDT
Civil Twilight 5:35 AM EDT 8:37 PM EDT
Nautical Twilight 4:59 AM EDT 9:12 PM EDT
Astronomical Twilight 4:21 AM EDT 9:50 PM EDT
Moon 3:12 AM EDT (8/3) 5:48 PM EDT (8/3)
Length of Visible Light 15h 01m
Length of Day
14h 03m
Waning Crescent, 9% of the Moon is Illuminated
Aug 3
Waning Crescent
Aug 6
New
Aug 14
First Quarter
Aug 20
Full
Aug 28
Last Quarter

Hourly Weather History & Observations

Time (EDT) Temp. Heat Index Dew Point Humidity Pressure Visibility Wind Dir Wind Speed Gust Speed Precip Events Conditions
12:53 AM 73.9 °F - 73.0 °F 97% 29.96 in 6.0 mi SW 4.6 mph - N/A   Clear
1:53 AM 73.0 °F - 71.1 °F 93% 29.96 in 7.0 mi SW 3.5 mph - N/A   Clear
2:53 AM 73.9 °F - 71.1 °F 91% 29.95 in 9.0 mi WSW 4.6 mph - N/A   Clear
3:53 AM 73.0 °F - 72.0 °F 96% 29.94 in 6.0 mi WSW 4.6 mph - N/A   Clear
4:53 AM 73.9 °F - 72.0 °F 93% 29.94 in 6.0 mi WSW 4.6 mph - N/A   Clear
5:53 AM 73.0 °F - 71.1 °F 93% 29.95 in 7.0 mi WSW 5.8 mph - N/A   Clear
6:53 AM 73.0 °F - 70.0 °F 90% 29.96 in 8.0 mi West 4.6 mph - N/A   Clear
7:53 AM 73.0 °F - 70.0 °F 90% 29.97 in 9.0 mi West 4.6 mph - N/A   Clear
8:53 AM 75.9 °F - 70.0 °F 82% 29.97 in 10.0 mi WNW 4.6 mph - N/A   Partly Cloudy
9:53 AM 80.1 °F 83.2 °F 70.0 °F 71% 29.96 in 10.0 mi NW 3.5 mph - N/A   Partly Cloudy
10:53 AM 84.9 °F 87.1 °F 66.0 °F 53% 29.96 in 10.0 mi Calm Calm - N/A   Clear
11:53 AM 79.0 °F - 70.0 °F 74% 29.97 in 10.0 mi South 5.8 mph - N/A   Clear
12:53 PM 82.0 °F 84.9 °F 68.0 °F 62% 29.96 in 10.0 mi South 4.6 mph - N/A   Clear
1:53 PM 79.0 °F - 71.1 °F 77% 29.95 in 9.0 mi SSW 4.6 mph - N/A   Partly Cloudy
2:53 PM 79.0 °F - 72.0 °F 79% 29.94 in 8.0 mi Calm Calm - N/A   Partly Cloudy
3:53 PM 77.0 °F - 73.9 °F 90% 29.93 in 6.0 mi East 4.6 mph - N/A   Partly Cloudy
4:53 PM 77.0 °F - 70.0 °F 79% 29.93 in 10.0 mi ESE 6.9 mph - N/A   Partly Cloudy
5:53 PM 73.9 °F - 69.1 °F 85% 29.93 in 10.0 mi SSE 3.5 mph - N/A   Partly Cloudy
6:53 PM 73.0 °F - 68.0 °F 84% 29.92 in 10.0 mi SE 4.6 mph - N/A   Partly Cloudy
7:53 PM 73.0 °F - 69.1 °F 87% 29.92 in 10.0 mi Calm Calm - N/A   Partly Cloudy
8:53 PM 72.0 °F - 69.1 °F 91% 29.93 in 10.0 mi North 3.5 mph - N/A   Partly Cloudy
9:53 PM 73.9 °F - 69.1 °F 85% 29.94 in 10.0 mi ENE 4.6 mph - N/A   Mostly Cloudy
10:22 PM 73.4 °F - 69.8 °F 88% 29.95 in 10.0 mi Calm Calm - N/A   Scattered Clouds
10:53 PM 72.0 °F - 70.0 °F 93% 29.93 in 10.0 mi Calm Calm - N/A   Clear
11:53 PM 71.1 °F - 69.1 °F 93% 29.92 in 7.0 mi Calm Calm - N/A   Scattered Clouds